Flag for Iceland Weather past 2 weeks in Reykjavik, Iceland

Now
50 °F

Broken clouds.


Feels Like: 49 °F
Forecast: N/A
Wind: 3 mph from West

Location: Reykjavik Airport

Current Time: Sep 4, 2015 at 5:06:18 PM

Latest Report: Sep 4, 2015 at 4:00 PM


Visibility: N/A

Pressure: 30.33 "Hg

Humidity: 76%

Dew point: 43 °F

Location of ReykjavikLocation

Historic Weather in Reykjavik — Graph

°F

Reykjavik temperature yesterday

Maximum temperature yesterday: 52 °F (at 1:00 AM)
Minimum temperature yesterday: 46 °F (at 7:00 PM)
Average temperature yesterday: 50 °F

Past Weeks' High & Low Weather Summary

 TemperatureHumidityPressure
High70 °F (Aug 25, 2:00 PM)94% (Aug 21, 11:00 PM)30.36 "Hg (Aug 21, 11:00 PM)
Low41 °F (Aug 29, 3:00 AM)43% (Aug 25, 2:00 PM)29.15 "Hg (Aug 27, 5:00 AM)
Average52 °F76%29.80 "Hg
* Reported Aug 20 4:00 PM — Sep 4 4:00 PM, Reykjavik, Weather by CustomWeather, © 2015

Note: Actual official high and low records may vary slightly from our data, if they occured in-between our weather recording intervals... More about our weather records

Advertising

Reykjavik weather history for previous 24 hours

 ConditionsComfort  
Time TempWeatherWind HumidityBarometerVisibility
4:00 PM
Fri, Sep 4
50 °FBroken clouds.3 mph76%30.33 "HgN/A
3:00 PM48 °FPartly sunny.7 mph82%30.36 "HgN/A
2:00 PM46 °FPartly sunny.7 mph82%30.36 "HgN/A
1:00 PM48 °FPartly sunny.6 mph76%30.36 "HgN/A
12:00 PM48 °FPartly sunny.3 mph76%30.36 "HgN/A
11:00 AM48 °FBroken clouds.5 mph71%30.36 "HgN/A
10:00 AM46 °FBroken clouds.7 mph82%30.33 "HgN/A
9:00 AM46 °FBroken clouds.3 mph82%30.33 "HgN/A
8:00 AM46 °FPartly sunny.3 mph82%30.33 "HgN/A
7:00 AM46 °FPartly sunny.7 mph82%30.30 "HgN/A
6:00 AM45 °FPassing clouds.9 mph87%30.30 "HgN/A
5:00 AM46 °FPassing clouds.12 mph82%30.30 "HgN/A
4:00 AM45 °FPassing clouds.15 mph87%30.27 "HgN/A
3:00 AM45 °FPassing clouds.13 mph87%30.27 "HgN/A
2:00 AM45 °FPassing clouds.16 mph93%30.27 "HgN/A
1:00 AM46 °FPassing clouds.17 mph87%30.27 "HgN/A
12:00 AM46 °FPassing clouds.17 mph87%30.24 "HgN/A
11:00 PM
Thu, Sep 3
46 °FPassing clouds.15 mph87%30.24 "HgN/A
10:00 PM48 °FPassing clouds.13 mph82%30.24 "HgN/A
9:00 PM46 °FPartly cloudy.10 mph87%30.21 "HgN/A
8:00 PM46 °FPartly sunny.13 mph87%30.21 "HgN/A
7:00 PM46 °FDrizzle. Partly sunny.14 mph93%30.21 "HgN/A
6:00 PM48 °FDrizzle. Broken clouds.12 mph87%30.18 "HgN/A
5:00 PM50 °FDrizzle. Broken clouds.12 mph88%30.18 "Hg5 mi
Weather by CustomWeather, © 2015

See weather overviewHow to use our weather pages